Find Yunhai-2 06 xing

NORAD ID: 43915 Int'l Des: 2018-112 Owner: CASC Country: CN operational
LEOCIRCULAR

Live-Position

3D-Globus wird geladen...

Über Yunhai-2 06 xing

Beschreibung wird geladen...

Nächste Überflüge

Passes for default location (London). Set your location on the main map for personalized predictions.

Höhenverlauf

Loading altitude history...

Zweizeiliger Elementsatz

1 43915U 18112G 26106.84227223 .00000055 00000-0 85009-4 0 9996
2 43915 50.0098 128.0458 0006837 114.6289 245.5339 14.29003975379537
Epoch: 16. Apr. 2026 • Age: 4 hours

Aktueller Status

Höhe 791.3 km
Geschwindigkeit 7.46 km/s
Subsatellitenpunkt 19.07°N, 81.03°E
Startdatum 29. Dez. 2018
Alter 7.2 years
Typ other

Technische Details

Klassifizierung Payload
Masse 100.00 kg
Trockenmasse 100.00 kg
Gesamtmasse 100.00 kg
Länge 0.50 m
Durchmesser 0.20 m
Spannweite 1.00 m
Form Box + 2 pan
Hersteller DFHS
Bus-Typ YH-2
Phasenstatus In Orbit
Besitzer/Staat CASC/CN

Most Searched